Temp
-11 -11 -11 -11 -11 -11 -11 -11 -10 -10 -10 -11 -10 -11 -11 -11 -11 -12 -12 -12 -13 -13 -13 -13 -13 -13 -13 -14 -14 -15 -14 -14 -13 -13 -13 -14 -14 -14 -13 -13 -12 -12 -13
-12 -11 -11 -11 -11 -11 -10 -11 -10 -10 -11 -11 -11 -11 -11 -11 -12 -12 -12 -13 -13 -13 -13 -13 -13 -13 -14 -14 -14 -14 -14 -14 -14 -13 -13 -14 -14 -15 -15 -14 -13 -13 -13
-12 -11 -11 -11 -11 -11 -11 -11 -11 -11 -11 -11 -12 -11 -12 -12 -12 -12 -12 -12 -13 -13 -13 -13 -14 -13 -14 -14 -14 -14 -14 -14 -14 -14 -14 -14 -14 -14 -15 -15 -15 -15 -13
-11 -11 -11 -11 -11 -11 -11 -11 -11 -11 -11 -12 -12 -12 -12 -12 -13 -13 -13 -13 -13 -13 -13 -13 -13 -13 -13 -13 -13 -14 -14 -14 -14 -14 -14 -14 -14 -15 -15 -15 -15 -15 -14
-12 -12 -11 -11 -11 -11 -12 -12 -12 -12 -13 -13 -13 -13 -13 -13 -14 -14 -13 -14 -14 -14 -14 -14 -14 -14 -14 -14 -14 -14 -14 -14 -15 -15 -15 -15 -15 -16 -15 -16 -16 -16 -15
-13 -12 -12 -12 -12 -12 -12 -12 -12 -13 -12 -13 -13 -13 -13 -14 -14 -14 -14 -14 -15 -15 -15 -15 -15 -16 -16 -16 -16 -16 -15 -15 -14 -14 -15 -16 -16 -17 -17 -17 -17 -16 -15
-13 -13 -13 -13 -13 -13 -13 -13 -13 -13 -13 -13 -13 -14 -14 -14 -14 -15 -15 -15 -15 -15 -16 -16 -16 -16 -16 -16 -16 -16 -16 -16 -15 -15 -15 -15 -15 -16 -16 -17 -17 -17 -16
-14 -13 -13 -13 -13 -12 -12 -12 -12 -13 -13 -14 -14 -14 -15 -15 -15 -15 -15 -15 -15 -16 -16 -16 -16 -16 -17 -16 -16 -15 -15 -15 -16 -15 -14 -14 -15 -16 -16 -16 -17 -17 -17
-13 -13 -13 -13 -12 -13 -13 -13 -13 -13 -14 -15 -15 -15 -15 -15 -15 -15 -15 -15 -15 -16 -16 -16 -16 -16 -16 -16 -15 -15 -15 -15 -15 -15 -14 -14 -14 -15 -15 -15 -16 -16 -16
-13 -13 -13 -13 -13 -13 -14 -14 -15 -15 -14 -15 -15 -15 -15 -15 -15 -15 -15 -15 -15 -15 -16 -16 -16 -16 -16 -15 -15 -15 -15 -15 -15 -15 -15 -15 -14 -15 -15 -15 -15 -16 -16
-13 -13 -13 -14 -15 -15 -15 -14 -15 -15 -15 -15 -15 -15 -15 -15 -16 -16 -16 -16 -16 -16 -16 -16 -17 -17 -17 -16 -16 -15 -15 -15 -15 -15 -15 -15 -15 -15 -15 -15 -15 -15 -16
-14 -14 -14 -14 -14 -14 -14 -15 -15 -15 -15 -15 -15 -16 -16 -16 -16 -16 -16 -16 -16 -16 -16 -17 -17 -18 -17 -17 -17 -16 -15 -15 -15 -15 -15 -16 -16 -15 -15 -15 -15 -15 -15
-14 -14 -14 -14 -14 -15 -15 -15 -15 -15 -15 -15 -16 -16 -16 -16 -16 -16 -17 -17 -17 -16 -17 -17 -17 -18 -18 -18 -18 -17 -17 -16 -16 -15 -16 -16 -16 -16 -15 -15 -15 -15 -15
-14 -14 -15 -15 -15 -15 -14 -15 -15 -15 -15 -16 -17 -17 -17 -17 -17 -17 -17 -17 -17 -17 -17 -17 -17 -18 -18 -18 -18 -17 -17 -17 -16 -16 -16 -16 -15 -15 -15 -15 -15 -15 -15
-15 -15 -15 -15 -15 -15 -15 -15 -15 -15 -16 -17 -18 -19 -19 -19 -18 -18 -17 -17 -17 -17 -17 -18 -18 -18 -18 -18 -18 -18 -18 -17 -17 -16 -16 -16 -16 -16 -16 -16 -15 -15 -15
-15 -15 -15 -15 -15 -15 -15 -15 -15 -16 -17 -17 -18 -20 -20 -20 -19 -19 -18 -18 -17 -18 -18 -18 -18 -18 -18 -18 -18 -18 -18 -18 -17 -17 -17 -17 -17 -17 -17 -16 -16 -16 -16
-15 -15 -15 -15 -15 -15 -15 -15 -16 -16 -17 -18 -19 -19 -20 -20 -19 -19 -19 -19 -18 -18 -18 -18 -18 -18 -18 -18 -18 -18 -18 -18 -18 -18 -17 -17 -17 -17 -17 -17 -17 -17 -17
-15 -15 -15 -15 -16 -15 -15 -16 -17 -17 -18 -19 -19 -19 -19 -19 -19 -18 -18 -18 -18 -18 -17 -17 -18 -18 -18 -18 -18 -17 -18 -18 -17 -17 -17 -17 -17 -17 -17 -17 -17 -17 -17
-15 -15 -15 -16 -16 -15 -15 -16 -16 -17 -18 -18 -19 -20 -19 -19 -19 -18 -18 -18 -18 -17 -17 -18 -18 -18 -17 -17 -18 -18 -18 -18 -17 -16 -16 -16 -17 -17 -18 -18 -18 -18 -18
-15 -15 -15 -16 -16 -15 -15 -15 -16 -16 -17 -18 -18 -18 -19 -19 -18 -18 -18 -18 -17 -17 -17 -17 -17 -18 -17 -17 -17 -17 -17 -17 -17 -17 -17 -17 -17 -17 -17 -17 -17 -18 -18
-15 -15 -15 -16 -16 -16 -16 -15 -16 -16 -17 -17 -17 -18 -18 -18 -18 -17 -17 -17 -17 -17 -17 -17 -17 -17 -17 -17 -17 -17 -17 -17 -17 -17 -17 -17 -17 -17 -18 -18 -18 -18 -18
-15 -15 -15 -16 -16 -16 -16 -15 -15 -16 -16 -16 -16 -17 -17 -17 -17 -17 -17 -17 -17 -17 -17 -17 -17 -17 -17 -17 -17 -17 -17 -17 -17 -17 -17 -17 -17 -17 -18 -18 -18 -18 -18
-15 -15 -15 -16 -16 -16 -16 -16 -16 -16 -16 -16 -16 -16 -16 -16 -16 -16 -17 -17 -17 -17 -17 -17 -17 -17 -17 -17 -17 -17 -17 -17 -17 -17 -17 -17 -17 -17 -17 -18 -17 -17 -18
-15 -15 -15 -15 -16 -16 -16 -16 -16 -16 -16 -16 -16 -16 -17 -16 -16 -17 -17 -17 -17 -17 -17 -17 -17 -17 -17 -16 -17 -16 -17 -17 -17 -17 -17 -17 -18 -18 -17 -17 -17 -18 -18
-15 -15 -15 -15 -15 -16 -16 -16 -16 -16 -16 -16 -16 -17 -17 -17 -17 -17 -17 -16 -16 -17 -17 -17 -17 -17 -17 -17 -16 -16 -16 -16 -16 -17 -17 -17 -17 -18 -18 -17 -17 -17 -17
-15 -16 -16 -16 -15 -16 -16 -16 -16 -16 -16 -16 -16 -17 -17 -17 -17 -17 -17 -17 -17 -17 -17 -17 -17 -17 -17 -16 -16 -17 -16 -16 -16 -17 -17 -17 -17 -16 -17 -17 -17 -17 -17
Height
5769 5771 5770 5768 5767 5764 5763 5762 5760 5761 5760 5758 5758 5756 5753 5751 5747 5744 5740 5737 5735 5733 5730 5729 5727 5726 5724 5720 5717 5714 5712 5709 5708 5707 5704 5701 5701 5702 5703 5702 5701 5703 5705
5758 5759 5758 5757 5757 5756 5754 5752 5751 5749 5746 5743 5742 5740 5740 5736 5733 5728 5728 5725 5723 5721 5718 5716 5713 5710 5708 5705 5701 5700 5698 5696 5693 5694 5691 5689 5687 5686 5688 5688 5689 5688 5690
5747 5746 5746 5745 5743 5744 5742 5739 5737 5735 5732 5729 5726 5723 5720 5717 5714 5712 5708 5707 5705 5703 5701 5696 5694 5691 5689 5685 5684 5684 5681 5679 5677 5677 5678 5674 5673 5671 5671 5671 5674 5675 5674
5740 5740 5739 5738 5736 5734 5731 5729 5724 5723 5719 5715 5712 5709 5705 5701 5697 5693 5691 5689 5686 5682 5678 5674 5673 5670 5666 5666 5665 5664 5662 5661 5658 5657 5657 5656 5655 5655 5654 5654 5654 5655 5659
5732 5731 5730 5728 5727 5724 5722 5719 5714 5710 5706 5703 5699 5695 5690 5685 5679 5675 5672 5670 5667 5663 5660 5656 5652 5649 5647 5645 5643 5641 5639 5637 5635 5635 5635 5635 5635 5636 5636 5636 5636 5637 5640
5723 5721 5720 5717 5714 5712 5708 5704 5700 5697 5693 5687 5682 5678 5675 5667 5662 5658 5653 5650 5646 5643 5640 5636 5632 5630 5627 5625 5623 5621 5620 5617 5616 5615 5616 5618 5619 5618 5618 5619 5618 5619 5623
5713 5712 5710 5706 5701 5697 5694 5689 5684 5679 5675 5671 5666 5658 5651 5646 5641 5636 5632 5629 5625 5622 5620 5617 5614 5611 5607 5605 5603 5601 5600 5600 5598 5598 5598 5601 5600 5602 5600 5601 5601 5602 5606
5703 5699 5695 5692 5687 5683 5678 5672 5667 5661 5654 5647 5642 5636 5631 5626 5620 5615 5610 5607 5605 5603 5600 5598 5596 5594 5591 5588 5585 5586 5587 5587 5586 5583 5582 5583 5586 5588 5586 5586 5586 5587 5589
5695 5691 5686 5681 5675 5669 5663 5656 5650 5644 5638 5631 5625 5618 5612 5606 5599 5595 5591 5590 5589 5587 5584 5581 5578 5577 5574 5571 5570 5570 5571 5573 5570 5569 5569 5570 5571 5574 5574 5573 5575 5574 5579
5681 5676 5671 5666 5660 5653 5646 5640 5634 5629 5623 5615 5608 5601 5595 5590 5582 5579 5576 5574 5572 5570 5567 5564 5561 5559 5558 5555 5555 5555 5556 5557 5556 5556 5557 5557 5559 5562 5563 5562 5564 5566 5569
5670 5665 5659 5652 5646 5641 5634 5628 5622 5615 5607 5600 5592 5583 5577 5571 5566 5561 5558 5556 5554 5552 5550 5547 5543 5540 5537 5536 5536 5537 5538 5538 5540 5541 5543 5544 5547 5550 5553 5553 5554 5557 5561
5658 5653 5647 5641 5635 5629 5623 5615 5608 5600 5590 5581 5573 5564 5556 5552 5548 5544 5541 5539 5536 5534 5532 5529 5526 5520 5518 5517 5517 5519 5519 5519 5520 5521 5524 5528 5532 5536 5540 5543 5545 5549 5553
5648 5643 5637 5632 5626 5619 5612 5604 5595 5586 5576 5567 5558 5550 5543 5537 5534 5531 5527 5524 5521 5519 5516 5513 5509 5505 5501 5500 5499 5499 5499 5501 5503 5505 5507 5510 5516 5521 5527 5533 5538 5541 5545
5640 5635 5630 5625 5619 5611 5602 5594 5585 5576 5565 5554 5544 5535 5529 5524 5522 5519 5516 5513 5511 5507 5504 5502 5498 5495 5491 5488 5486 5485 5485 5487 5489 5492 5495 5498 5502 5507 5514 5520 5527 5533 5537
5633 5629 5625 5619 5611 5603 5593 5587 5576 5565 5554 5543 5530 5519 5513 5509 5509 5509 5507 5505 5502 5500 5497 5495 5492 5490 5486 5483 5479 5476 5474 5476 5479 5482 5485 5488 5492 5497 5503 5510 5516 5522 5528
5628 5625 5619 5612 5605 5597 5589 5577 5567 5556 5544 5533 5523 5512 5505 5501 5500 5501 5500 5499 5497 5495 5494 5492 5491 5488 5484 5481 5478 5476 5474 5475 5476 5477 5479 5480 5484 5488 5495 5502 5508 5513 5520
5625 5620 5614 5607 5600 5593 5584 5573 5561 5550 5541 5532 5523 5515 5507 5503 5500 5500 5499 5498 5497 5496 5495 5494 5492 5491 5488 5486 5483 5481 5477 5477 5476 5475 5474 5475 5478 5484 5489 5495 5501 5507 5512
5621 5616 5610 5602 5597 5590 5580 5570 5558 5548 5540 5532 5524 5517 5512 5507 5504 5503 5503 5503 5502 5500 5500 5500 5499 5497 5494 5491 5487 5484 5480 5476 5474 5472 5470 5469 5474 5481 5486 5493 5498 5503 5509
5617 5612 5606 5600 5595 5588 5579 5568 5560 5550 5542 5533 5525 5519 5516 5513 5511 5509 5509 5509 5508 5507 5508 5509 5506 5503 5501 5498 5494 5490 5486 5481 5478 5475 5473 5471 5474 5479 5485 5491 5497 5502 5508
5614 5609 5603 5598 5594 5587 5579 5570 5562 5554 5546 5539 5531 5525 5523 5522 5520 5519 5518 5518 5517 5517 5517 5516 5514 5512 5510 5506 5503 5499 5495 5491 5488 5484 5482 5482 5484 5488 5492 5497 5501 5506 5511
5611 5607 5602 5597 5593 5588 5581 5574 5567 5559 5554 5548 5542 5537 5533 5532 5530 5529 5529 5528 5527 5525 5523 5521 5521 5520 5517 5514 5510 5508 5505 5502 5498 5495 5494 5494 5496 5499 5503 5506 5508 5511 5514
5610 5606 5601 5596 5592 5589 5584 5578 5572 5567 5562 5557 5553 5549 5546 5543 5542 5541 5539 5537 5536 5533 5531 5530 5528 5527 5526 5524 5520 5518 5516 5514 5512 5509 5508 5508 5509 5511 5512 5514 5515 5516 5519
5609 5605 5600 5596 5593 5590 5586 5582 5577 5573 5569 5565 5562 5559 5557 5554 5551 5549 5548 5547 5545 5541 5540 5539 5538 5535 5534 5532 5530 5529 5527 5524 5522 5521 5520 5521 5522 5522 5521 5521 5522 5525 5528
5607 5604 5601 5596 5593 5590 5587 5584 5581 5577 5573 5571 5568 5566 5564 5562 5559 5556 5554 5552 5548 5548 5546 5545 5545 5543 5541 5540 5540 5539 5537 5534 5532 5530 5529 5529 5529 5529 5529 5531 5532 5534 5535
5605 5603 5601 5597 5594 5591 5588 5585 5583 5580 5577 5574 5572 5570 5569 5567 5564 5562 5560 5558 5555 5553 5552 5551 5550 5549 5547 5545 5544 5545 5544 5543 5541 5540 5539 5539 5538 5538 5539 5539 5540 5541 5542
5604 5602 5600 5597 5594 5591 5588 5586 5583 5581 5579 5577 5574 5572 5570 5569 5567 5566 5563 5561 5560 5559 5557 5556 5555 5554 5552 5550 5548 5547 5546 5546 5546 5546 5546 5545 5545 5545 5545 5545 5545 5546 5547
Wind_Speed
36 39 40 39 41 43 45 46 48 49 50 50 53 54 52 52 49 49 54 52 53 55 56 57 57 54 52 53 52 52 55 56 55 55 56 55 52 50 49 48 48 44 42
36 38 40 42 44 45 47 49 51 54 55 54 56 58 59 59 57 60 58 61 62 58 61 61 61 58 57 56 57 56 56 56 59 59 60 59 57 56 52 48 49 51 47
37 39 42 44 44 48 50 50 51 52 53 53 53 56 58 61 60 62 63 65 66 65 66 65 65 65 62 60 61 61 62 63 65 64 62 64 63 63 60 59 56 51 49
38 39 41 43 43 46 47 49 49 51 53 55 57 60 63 64 66 66 67 68 68 67 67 67 69 67 66 66 66 65 65 65 66 66 65 65 65 64 64 60 60 60 55
33 36 39 40 41 42 45 48 51 53 56 59 60 63 65 65 66 68 69 70 70 69 70 70 71 71 71 71 71 69 69 69 69 68 66 63 60 57 57 55 58 58 58
32 36 38 40 42 45 48 50 53 55 58 59 61 64 66 66 68 70 71 72 71 72 71 72 74 74 75 75 74 73 71 69 67 62 56 53 54 56 56 54 53 56 58
32 33 36 40 43 46 49 52 54 56 57 60 61 63 65 68 70 73 73 74 74 73 73 72 71 69 64 61 60 58 58 56 56 55 54 51 51 49 51 51 51 52 51
34 38 41 45 48 51 54 57 59 60 61 63 65 65 63 59 59 59 59 58 57 55 56 56 57 55 56 57 57 55 53 50 50 50 49 43 40 41 44 43 44 44 42
37 41 44 47 49 52 55 58 60 60 56 54 53 54 54 54 54 53 52 50 49 48 49 50 50 47 48 49 49 48 46 44 45 44 45 43 39 34 33 33 33 36 35
42 44 46 48 51 52 50 47 46 46 47 48 50 53 55 55 55 55 54 52 52 51 51 52 53 53 52 52 51 50 50 50 50 50 47 44 40 35 31 33 31 29 29
42 45 47 44 44 43 40 40 43 47 51 54 58 59 60 59 60 60 59 57 56 54 54 54 53 54 56 57 56 55 54 56 55 53 51 48 43 37 32 31 29 26 22
45 43 40 40 37 38 42 45 50 54 56 56 54 53 52 50 48 47 45 44 44 45 44 46 52 59 63 61 58 55 55 54 50 50 52 52 48 44 37 32 28 25 24
41 38 36 35 39 40 46 50 52 50 50 52 50 45 44 42 41 40 40 40 39 38 38 40 41 41 38 44 47 46 45 43 40 38 38 45 50 49 43 35 30 27 26
34 32 34 35 39 44 47 44 43 44 48 50 51 49 45 43 40 38 36 35 33 31 30 30 31 32 32 32 33 35 35 36 37 35 34 33 34 38 42 38 34 31 30
29 30 32 36 39 42 38 37 43 48 48 48 48 44 39 35 34 33 28 28 29 27 23 22 22 23 22 20 19 21 21 20 21 24 28 31 31 32 35 36 33 33 32
26 29 31 35 39 31 34 41 48 45 43 41 35 28 22 15 9 9 13 17 16 13 13 12 9 8 6 7 9 9 7 8 11 16 19 21 23 25 27 28 27 26 27
24 26 31 34 28 27 37 44 40 36 34 32 27 23 17 13 10 8 11 12 11 8 9 9 8 10 16 15 11 10 11 6 7 17 16 17 18 19 21 22 22 23 24
20 26 29 27 22 29 38 40 34 31 29 27 22 19 18 15 13 13 12 12 13 14 14 17 12 15 12 17 17 14 8 12 7 7 7 13 19 19 20 20 19 19 19
21 24 26 19 20 28 36 32 30 29 28 27 23 16 16 18 17 15 13 15 18 18 19 20 26 26 27 23 21 23 25 18 17 16 16 13 13 12 13 14 15 16 14
19 21 23 15 18 26 32 26 30 26 27 30 31 26 21 22 23 26 25 24 23 22 22 22 18 18 28 16 19 29 24 27 22 25 27 29 26 23 22 22 23 24 19
17 19 22 16 15 20 27 22 27 25 24 30 32 29 26 25 25 26 24 24 24 23 17 14 16 18 27 26 21 16 25 31 28 27 28 26 25 22 19 17 17 18 19
15 17 20 15 11 14 20 18 23 24 26 29 29 27 30 28 25 25 22 18 18 19 21 24 23 19 15 27 30 31 28 29 35 32 30 26 24 24 21 18 13 16 22
12 15 18 15 9 10 11 11 17 17 18 21 22 21 22 22 23 18 19 22 15 15 17 17 21 24 23 26 24 26 26 26 25 30 29 28 25 18 17 16 16 20 17
7 13 16 16 10 5 8 9 12 13 12 10 13 16 16 13 12 15 14 20 17 13 12 12 17 21 17 18 20 19 20 22 23 23 23 23 22 21 23 20 16 15 15
5 9 13 15 14 9 5 6 7 10 12 9 8 8 8 9 6 8 11 17 19 12 12 10 11 12 7 10 13 14 16 17 18 19 18 16 15 15 14 14 13 12 11
7 8 11 12 13 13 9 5 5 6 7 9 10 10 9 6 6 3 3 6 8 7 6 3 6 4 3 4 6 8 8 11 13 13 12 11 9 9 9 8 9 8 7
Wind_Direction
244 252 260 264 264 266 269 270 273 273 272 272 276 276 274 274 277 278 282 279 280 280 283 282 279 279 278 278 280 281 280 279 279 280 283 285 287 285 280 277 276 273 272
259 260 263 265 266 268 270 272 273 276 280 281 279 280 280 279 278 279 277 276 275 273 274 274 277 275 274 276 277 278 278 277 277 277 278 278 279 283 283 282 273 272 272
260 263 265 267 271 276 277 279 280 281 281 281 281 281 280 279 279 277 278 276 276 275 274 274 275 277 278 277 276 274 273 273 275 275 274 274 276 277 276 276 275 273 272
261 266 270 272 274 276 280 280 281 280 280 279 278 276 275 275 274 275 276 276 277 278 279 280 280 281 281 280 279 278 278 277 277 276 275 275 274 274 275 274 272 271 269
269 270 271 274 275 276 277 278 278 276 276 275 276 277 277 278 278 278 279 279 279 280 280 281 281 281 281 281 281 281 280 279 279 281 281 280 278 275 273 272 271 267 266
271 273 276 279 280 277 275 274 275 276 277 279 280 280 279 279 280 279 277 277 276 276 277 278 279 279 279 279 279 280 283 282 281 277 278 277 277 276 274 271 269 267 264
283 285 283 281 281 283 285 286 286 285 283 281 279 278 279 277 275 274 274 273 275 277 279 280 281 279 277 275 274 274 275 277 278 278 279 278 276 276 274 271 266 263 262
294 293 293 294 293 291 289 289 288 287 286 285 284 283 283 283 282 281 282 282 281 279 277 277 278 278 276 275 273 274 274 275 276 276 277 276 274 274 270 269 265 265 262
294 295 294 292 292 291 289 288 286 285 287 288 289 289 289 288 288 287 286 285 284 281 279 278 277 276 275 274 273 272 271 272 271 273 276 276 273 272 277 270 265 260 259
304 299 298 297 295 294 293 291 291 292 293 295 295 294 293 292 290 288 286 285 284 282 280 277 277 276 274 271 270 271 271 270 270 270 271 271 268 271 273 273 262 262 255
306 303 301 300 298 298 299 301 301 302 301 299 296 293 289 285 283 284 284 284 284 283 280 279 278 276 271 268 268 268 270 271 269 267 266 265 264 263 266 268 266 253 243
307 305 304 303 303 305 306 307 307 307 306 303 300 298 295 292 290 289 289 289 288 286 284 281 279 275 271 271 272 273 273 272 270 264 257 252 253 255 257 257 257 244 233
306 305 304 304 309 312 311 312 314 312 310 307 302 297 296 296 296 295 294 292 291 292 290 287 287 288 283 275 268 264 262 261 261 262 260 251 248 248 247 248 248 239 234
302 302 306 312 313 314 317 320 319 318 314 310 305 299 294 294 294 295 296 297 295 291 289 289 290 290 287 284 279 274 268 262 258 257 253 249 247 244 239 236 237 237 233
299 306 311 315 319 323 324 326 322 319 318 318 316 308 295 289 286 291 294 295 295 292 293 299 304 303 301 300 296 291 268 245 246 246 245 246 246 243 235 232 232 233 234
307 312 318 324 324 328 331 330 331 328 328 330 337 334 325 309 295 301 310 307 303 304 317 334 352 4 359 356 353 340 305 267 254 253 249 247 242 235 230 229 225 223 223
312 321 326 326 333 342 341 339 336 339 341 343 356 3 5 9 18 14 3 11 23 37 55 62 68 64 31 31 23 19 324 19 329 294 265 242 227 221 217 215 216 216 218
322 330 329 335 347 350 347 347 350 350 353 356 0 1 8 15 19 24 32 61 69 74 78 75 78 32 37 53 45 44 10 335 336 323 291 245 221 213 209 205 210 207 207
330 332 337 345 354 352 352 354 353 353 359 6 7 18 33 43 44 41 56 71 77 80 78 69 67 78 61 53 57 45 39 50 68 70 71 99 144 161 172 173 177 165 160
335 338 346 345 352 354 356 6 3 17 32 45 40 57 62 59 58 72 78 77 76 72 75 73 81 79 50 59 64 45 61 54 66 79 86 93 104 110 122 123 133 139 153
344 348 355 353 351 -0 4 23 20 36 40 44 45 57 65 70 73 74 79 84 74 67 63 56 52 79 65 50 55 36 71 66 69 77 86 87 91 101 111 117 124 135 138
349 359 4 8 14 12 21 38 39 51 51 57 53 57 63 64 69 79 86 84 68 77 57 65 67 66 67 65 75 75 76 78 71 71 81 91 96 102 114 124 124 147 130
351 14 16 18 22 21 23 36 35 33 49 55 59 61 67 71 60 68 83 56 76 91 75 76 63 73 67 68 71 65 71 78 79 75 80 74 68 85 88 83 99 105 107
355 21 26 28 24 12 17 18 22 22 20 32 38 37 51 70 57 49 83 41 66 83 93 84 84 81 70 68 74 69 70 69 69 79 84 89 89 84 94 107 116 113 115
13 24 29 33 35 28 360 6 9 11 17 12 3 5 17 32 48 40 70 71 65 77 108 98 83 68 96 69 67 72 78 71 68 74 75 80 86 88 90 98 99 100 100
33 33 26 29 33 36 29 356 342 1 5 4 7 8 10 8 345 300 294 0 56 74 108 83 107 75 75 38 33 29 41 73 77 74 71 61 60 73 78 84 89 84 77